Location: Mahannah Oil Field
(37.4664°N, 96.6003°W)
Time: 17:07:59
(UTC+00:00)

Vanguard 2 Rocket - Pass Details

Date: 22 June 2021
Orbit: 554 x 3325 km, 32.9° (Epoch: 24 July)

Event Time Altitude Azimuth Distance (km) Brightness Sun altitude
Rises 06:51:40 0° 282° (WNW) 6,620 11.4 -28.9°
Reaches altitude 10° 06:57:06 10° 275° (W) 5,190 10.7 -28.7°
Enters shadow 07:06:59 33° 236° (SW) 2,829 9.0 -28.4°
